Tracking 19281 objects as of 16-Nov-2018
HD Live streaming from Space Station
objects crossing your sky now

WESTPAC

Track WESTPAC now!
10-day predictions
WESTPAC is classified as:


NORAD ID: 25398
Int'l Code: 1998-043E
Perigee: 822.7 km
Apogee: 823.2 km
Inclination: 98.7 °
Period: 101.2 minutes
Semi major axis: 7193 km
RCS: 0.165 m2 (medium)
Launch date: July 10, 1998
Source: Australia (AUS)
Launch site: TYURATAM MISSILE AND SPACE COMPLEX (TTMTR)
aabbcc
Your satellite tracking list
Your tracking list is empty




NASA's NSSDC Master Catalog

Two Line Element Set (TLE):
1 25398U 98043E   18319.43747465 -.00000026 +00000-0 +79407-5 0  9994
2 25398 098.6700 255.6055 0000360 326.6428 033.4727 14.22830562056917
Source of the keplerian elements: AFSPC